OPS 7613 (P/L 5)

导读

OPS 7613 (P/L 5)是美国于1969年9月30日08:00发射的军用侦察卫星,隶属美国国家侦察局OPS系列保密航天任务。作为冷战时期美军太空情报体系的组成部分,该卫星主要承担对地成像侦察任务,为美军提供战略区域的动态监测数据。 它被送入近地轨道运行,依托胶片返回等早期侦察技术获取情报,是美国冷战时期构建太空监视网络的重要一环,标志着美国在军事航天侦察领域的早期探索,这类保密卫星为后续美国侦察卫星技术发展积累了关键经验。

Basic Information
目录编号:
4247
目录名称:
OPS 7613 (P/L 5)
国际标识:
1969-082F
轨道中心:
EARTH
卫星名称:
OPS 7613 (P/L 5)
卫星全名:
--
卫星状态:
在轨 (已飞行20804 天)
发射日期:
1969-09-30 UTC
国别 :
美国 (US)
星等 :
--
This satellite is enrolled in the Space Conjunction Data Service (SCDS) and the current flight risk assessment level is: No High Risk
Orbit Information
数据来源 国际轨道数据 AOE轨道数据
星历时间 2026-09-15T18:09:24+0800
12小时前
查看轨道信息
2026-09-15T00:00:00+0800
1天前
查看轨道信息
半长轴 7285.802km 7285.804km
偏心率 0.002022 0.0020174
轨道倾角 70.012° 70.012°
近地点辐角 3.267° 4.352°
升交点赤经 269.701° 271.316°
平近点角 356.856° 154.752°
近地点 892.933km 892.968km
远地点 922.397km 922.366km
周期 103.152分钟 103.152分钟
每日圈数 13.960044 13.960036
Detailed Information
使用方式:
暂无
2D Orbit Map
3D Orbit Map
Orbit Altitude Analysis Chart
Orbit Inclination Analysis Chart
Orbit Comprehensive Analysis Chart
View Comprehensive Chart
Miss Distance Evolution Trend with All Objects Subscribe to Flight Safety Assessment
Collision Probability Evolution Trend with All Objects Subscribe to Flight Safety Assessment